Theta_e
309 310 311 312 313 313 313 313 314 314 315 315 316 316 317 317 317 319 320 320 321 320 321 322 321 320 322 322 318 318 320 319 318 318 316 313 311 310 307 305 304 302 302 301 301 300 300 300 299 300 300 299 299 299 299 299 298 298 298 298 298 298 298 298 298 297 297 297 297 297 296 296 296 296 296 296 296 296 296 296 296 296 296 296 296
308 309 311 312 312 313 313 313 314 315 315 315 316 316 317 317 318 319 320 321 321 321 322 322 321 321 321 321 318 319 320 316 317 317 315 313 311 309 305 303 302 301 301 300 300 300 299 299 299 303 303 299 298 298 298 298 298 298 298 298 298 298 297 297 297 297 297 297 296 296 296 296 296 296 296 296 296 296 296 296 296 296 295 295 296
308 309 310 312 313 313 313 314 314 315 315 315 316 316 317 317 318 320 320 321 319 319 321 322 321 320 320 320 319 320 319 316 317 317 314 312 309 307 303 302 301 301 300 300 300 299 299 299 299 303 302 298 298 298 298 298 297 297 297 297 297 297 297 297 297 297 296 296 296 296 296 296 296 296 296 296 296 296 295 295 295 295 295 295 296
308 309 310 312 313 314 314 315 315 315 315 316 316 316 317 318 320 320 320 320 318 319 320 320 321 319 319 320 320 321 320 318 319 316 313 311 307 304 301 301 300 300 300 299 300 299 299 299 299 299 299 298 298 297 297 297 297 297 297 297 297 297 297 296 296 296 296 296 296 296 296 296 296 296 296 296 295 295 295 295 295 295 295 295 296
308 309 310 312 313 314 314 314 315 315 316 316 317 317 318 319 320 320 320 320 319 320 320 320 321 319 320 321 320 321 320 320 318 314 312 309 305 302 300 301 300 299 300 299 299 299 299 299 298 298 298 298 297 297 297 297 297 297 297 297 296 296 296 296 296 296 296 296 296 296 296 295 295 295 295 295 295 295 295 295 295 295 295 295 297
308 309 309 311 312 313 314 314 315 317 318 319 319 318 318 318 318 319 321 320 319 321 320 320 321 319 320 320 321 321 320 320 317 313 311 307 303 301 300 300 299 299 299 299 299 299 299 298 298 298 297 297 297 297 297 297 297 296 296 296 296 296 296 296 296 296 296 296 296 295 295 295 295 295 295 295 295 295 294 295 295 295 297 296 297
309 309 310 311 312 313 314 315 317 319 320 321 319 318 317 318 319 320 320 320 319 322 320 319 320 320 320 320 321 320 319 319 316 312 309 304 301 300 300 300 299 299 299 299 299 299 299 298 298 297 297 297 297 297 296 296 296 296 296 296 296 296 296 296 296 296 296 295 295 295 295 295 295 295 295 295 294 294 294 295 295 297 298 297 298
311 311 310 311 313 313 315 317 319 321 321 320 319 318 318 319 320 320 320 319 320 321 320 319 320 320 320 320 320 320 319 319 316 311 306 301 299 299 300 300 299 299 299 299 299 299 298 298 297 297 297 297 296 296 296 296 296 296 296 296 296 296 296 296 295 295 295 295 295 295 295 294 295 295 295 294 294 294 294 294 295 296 297 299 301
313 313 312 313 314 315 316 319 320 320 320 319 319 318 319 319 319 320 320 319 319 320 320 320 320 320 319 319 320 320 319 317 315 310 303 299 299 299 299 299 299 299 299 299 299 298 298 298 297 297 297 296 296 296 296 296 296 296 296 296 296 295 295 295 295 295 295 295 294 294 294 294 295 294 294 294 294 294 294 294 295 296 298 301 302
317 316 316 317 317 318 319 320 320 320 319 320 319 319 319 318 318 320 320 319 319 319 320 320 320 320 318 318 319 318 318 317 313 307 301 299 299 299 299 299 299 299 299 299 298 298 298 297 297 297 297 296 296 296 296 296 296 296 296 296 295 295 295 295 295 295 294 294 294 294 294 294 294 294 294 294 294 294 294 295 296 298 300 301 302
317 317 317 318 319 319 319 320 320 320 320 320 320 319 318 317 319 320 319 319 320 320 320 319 318 317 317 318 318 317 317 316 311 305 299 299 299 299 299 299 299 299 299 299 298 298 298 297 297 297 296 296 296 296 296 296 296 296 296 296 295 295 295 295 295 294 294 294 294 294 294 294 294 294 294 294 294 293 294 296 297 299 300 301 301
317 318 318 318 318 319 319 320 320 320 320 320 320 319 317 317 319 320 319 319 321 321 320 317 316 316 317 319 319 317 316 314 310 304 298 299 299 298 299 299 299 299 298 299 298 298 297 297 297 296 296 296 296 296 296 296 296 296 296 295 295 294 294 294 294 294 294 294 294 294 294 294 294 294 294 293 293 293 294 297 297 298 300 300 300
318 318 318 318 318 318 318 319 320 320 320 319 320 319 318 318 319 321 321 320 321 321 318 315 316 318 318 319 318 316 315 313 309 303 298 298 298 298 299 299 299 298 298 298 298 298 297 297 296 296 296 296 296 296 296 296 296 296 295 295 295 294 294 294 294 294 294 294 294 294 294 294 294 293 293 293 293 293 295 297 296 297 299 299 299
318 318 318 318 318 319 318 318 319 319 319 319 319 319 319 318 319 321 322 321 322 321 318 315 317 320 319 319 316 314 313 311 307 302 298 298 298 298 299 298 298 298 298 298 298 297 297 296 296 296 296 296 296 296 296 296 296 296 295 295 294 294 294 294 294 294 294 294 294 294 294 294 293 293 293 293 293 294 296 296 296 297 298 298 298
318 319 319 318 318 319 319 319 319 319 319 319 319 319 319 319 319 321 322 322 322 320 318 316 318 320 319 319 315 312 313 311 306 302 298 298 298 298 298 298 298 298 298 298 297 297 296 296 296 296 296 296 296 296 296 296 296 295 295 294 294 294 293 293 293 293 293 294 294 294 294 293 293 293 293 293 293 293 295 295 295 296 297 297 297
320 321 320 319 319 319 318 318 319 319 319 319 319 319 319 319 319 320 320 321 321 320 318 317 319 319 318 319 315 310 312 312 306 301 298 297 297 297 298 298 298 298 298 298 297 297 296 296 296 296 296 296 296 296 295 295 295 295 294 294 294 293 293 293 293 293 293 294 294 293 293 293 293 293 293 293 293 292 292 293 294 294 296 297 297
320 321 321 321 320 320 319 319 319 319 319 319 319 319 319 319 320 320 320 320 320 319 317 316 317 318 317 318 316 311 309 309 306 302 298 297 297 297 298 297 298 298 298 297 297 296 296 295 295 296 296 296 295 295 295 295 294 294 294 294 294 293 293 293 293 293 293 294 293 293 293 293 293 293 293 293 292 292 292 292 293 294 295 297 297
321 322 322 321 321 320 320 319 319 320 320 320 320 320 319 320 321 322 321 321 320 319 317 315 315 317 317 317 316 314 310 309 309 305 300 298 298 298 298 298 297 297 297 297 296 296 295 295 295 295 295 295 295 295 295 294 294 294 294 293 293 293 293 293 293 293 293 293 293 293 293 293 293 293 292 292 292 292 291 292 293 294 295 297 297
323 323 323 322 321 321 320 320 320 320 320 320 320 320 321 321 321 321 322 322 322 319 317 316 315 316 316 315 315 316 315 314 313 310 304 302 302 302 301 299 297 297 297 296 296 295 295 295 295 295 295 295 295 295 294 294 294 294 293 293 293 293 293 293 293 293 293 293 293 293 293 293 293 292 292 292 292 291 291 292 294 294 296 297 297
325 324 324 323 322 322 321 321 320 321 322 321 321 321 322 322 321 321 323 323 322 320 317 317 317 316 315 314 314 316 315 313 315 315 308 306 307 305 303 300 297 296 297 296 296 295 295 295 295 295 295 295 295 294 294 294 293 293 293 293 293 293 293 293 293 293 293 293 293 293 293 292 292 292 292 291 291 291 291 292 294 294 296 297 296
325 325 324 323 323 322 322 322 322 322 323 322 322 322 322 323 322 321 323 324 322 320 317 316 317 317 316 314 313 316 317 313 314 315 310 307 308 306 303 301 297 296 297 296 295 295 295 295 295 295 295 294 294 294 294 293 293 293 293 293 293 293 293 293 293 293 293 293 293 292 292 292 292 291 291 291 290 291 291 292 294 294 295 296 296
324 324 323 323 323 323 322 322 323 323 323 323 322 321 322 323 323 322 323 324 323 321 317 316 317 316 315 315 312 313 315 314 312 311 308 307 307 305 303 301 298 297 297 296 296 295 295 295 295 295 294 294 294 294 293 293 293 293 293 293 293 293 293 293 293 293 293 293 292 292 292 292 291 291 291 290 290 290 291 292 293 294 295 295 295
323 322 322 322 322 322 322 323 323 324 324 323 322 321 321 322 323 323 323 323 323 322 318 318 319 316 314 314 311 308 309 312 310 307 305 305 304 303 302 300 298 297 297 296 296 295 295 295 295 294 294 294 293 293 293 293 293 293 293 293 293 293 293 293 293 293 293 292 292 292 291 291 291 290 290 290 290 290 290 292 293 293 294 295 294
323 322 322 321 321 321 322 323 323 323 324 324 323 322 321 322 323 323 323 322 321 322 320 318 320 320 316 313 310 305 303 306 305 303 302 303 303 302 301 299 297 297 297 296 296 295 295 295 295 294 294 294 293 294 294 293 293 293 292 293 293 293 293 293 293 292 292 292 292 291 291 291 291 290 290 290 290 290 289 291 293 292 293 294 294
321 321 320 321 321 322 322 322 323 323 323 324 324 323 322 323 323 323 323 322 320 321 319 317 320 323 319 314 309 303 301 301 300 300 301 301 301 301 300 298 297 297 297 296 296 295 295 295 295 295 294 294 293 293 293 293 293 292 292 292 292 293 292 292 292 292 292 292 291 291 291 290 290 290 290 289 289 290 289 291 291 291 292 293 293
318 318 319 320 321 322 322 322 323 322 323 323 324 324 323 323 323 324 324 322 320 319 317 316 321 323 319 315 310 303 300 300 299 300 302 301 301 301 300 298 297 297 297 297 296 295 295 295 295 295 294 293 293 293 293 292 292 292 292 292 292 292 292 292 292 291 291 291 290 290 290 290 290 289 289 289 289 289 289 290 291 290 290 292 293
317 318 319 320 321 322 323 323 323 323 323 323 324 324 324 323 324 324 324 323 321 318 316 316 321 322 319 317 311 303 300 300 299 301 302 302 301 301 301 299 297 297 297 297 296 295 295 295 295 295 293 292 292 292 292 292 292 292 292 292 292 292 292 291 291 291 291 291 290 290 290 290 290 289 289 289 289 289 288 289 290 289 289 291 292
319 319 320 321 322 323 323 323 323 323 323 324 324 324 324 323 323 323 323 322 321 319 318 318 319 320 319 318 314 305 300 299 299 301 302 301 301 301 300 300 299 298 297 296 296 295 295 295 295 294 293 292 292 292 292 291 291 292 292 292 292 292 292 291 291 291 290 290 290 290 290 289 289 289 289 289 289 288 288 288 289 288 289 289 290
320 320 320 321 322 323 324 324 324 324 324 325 325 324 325 324 323 321 320 320 320 319 320 320 320 321 320 320 316 306 299 298 299 300 301 300 301 300 299 299 299 299 298 297 296 295 295 295 294 293 292 291 291 291 291 291 291 292 292 292 291 291 291 291 291 290 290 290 289 289 289 289 289 289 289 289 288 288 287 288 288 288 288 289 289
321 321 321 322 322 324 325 325 325 325 325 325 325 325 325 325 322 320 319 319 319 319 320 321 321 321 320 320 317 306 298 298 299 299 300 300 300 299 299 299 298 299 299 299 298 296 296 295 293 293 292 291 291 291 291 291 291 292 291 291 291 291 291 291 290 290 290 289 289 289 289 289 289 289 289 289 288 288 287 287 288 287 288 288 289
322 322 322 322 323 324 325 326 326 326 326 326 326 325 325 324 320 319 319 319 319 320 320 319 319 319 318 319 316 305 297 298 298 298 299 299 299 299 299 299 298 299 299 299 299 297 296 295 293 292 292 291 291 291 291 291 291 291 291 291 291 290 291 290 290 289 289 289 289 289 289 289 289 289 289 288 288 287 287 287 287 287 287 288 288
324 323 323 323 324 325 326 326 326 327 327 327 326 326 325 323 321 320 320 319 319 319 318 317 317 317 317 318 312 301 297 298 297 298 298 298 298 299 298 298 298 299 299 299 299 298 297 295 293 292 292 291 292 291 291 291 291 291 291 291 290 290 290 290 289 289 289 289 289 289 289 289 289 289 288 288 287 287 286 286 286 286 286 287 287
325 324 324 324 324 325 326 327 326 326 327 326 326 326 325 324 323 322 322 320 319 319 318 318 318 317 317 315 306 298 297 298 297 297 297 298 298 298 298 298 298 298 299 299 298 297 296 294 293 292 292 291 291 292 291 291 291 291 291 291 290 290 290 289 289 289 289 289 289 288 288 288 288 288 288 288 287 287 286 286 286 286 286 286 287
325 325 325 325 325 326 326 326 325 325 325 326 327 327 327 325 324 324 323 321 320 319 319 320 319 318 316 309 300 297 297 297 297 297 297 297 298 298 298 298 298 298 299 299 298 296 296 294 293 293 292 291 291 291 291 291 291 291 291 290 290 290 290 289 289 289 288 289 289 288 288 288 288 288 288 287 287 286 286 286 286 286 286 286 286
325 325 325 325 326 326 326 325 324 323 323 324 326 327 327 326 325 324 324 323 321 319 319 319 318 317 313 303 296 296 296 296 296 296 296 297 298 298 298 298 298 298 299 299 298 296 295 294 294 293 292 292 291 291 292 291 291 291 291 290 290 289 289 289 289 289 288 288 289 288 288 288 288 288 287 287 287 286 286 286 286 286 286 286 286
325 325 325 325 325 325 325 324 323 322 322 324 326 327 327 327 326 324 324 323 321 318 317 316 316 315 309 299 296 296 296 296 296 296 296 297 298 298 298 297 297 298 298 299 298 296 295 294 293 293 292 292 292 292 292 291 291 291 291 290 290 289 289 289 289 288 288 288 288 288 288 288 288 287 287 287 286 286 286 285 285 285 285 285 285
324 324 324 323 323 324 324 323 322 321 322 324 326 327 327 327 325 323 323 324 321 318 316 314 314 313 305 297 296 296 296 296 296 296 297 298 298 298 298 297 298 298 299 299 298 297 295 294 293 293 292 292 292 292 292 291 291 291 290 290 290 289 289 289 289 288 288 288 288 288 288 288 287 287 287 287 286 286 286 285 285 285 285 285 285
322 322 323 323 324 324 323 322 321 322 323 325 326 327 327 326 324 322 323 324 321 318 317 314 312 309 302 296 296 296 296 296 296 297 297 298 298 298 298 298 298 298 299 299 298 297 296 294 293 293 292 292 291 291 292 291 291 291 290 290 290 290 289 289 288 288 288 287 288 288 288 288 287 287 287 286 286 286 286 285 285 284 284 284 284
322 323 323 324 323 322 320 320 322 324 325 326 327 326 326 326 325 323 323 323 321 319 318 315 312 306 299 296 296 296 296 296 296 297 297 298 298 298 298 297 298 299 299 299 298 297 296 295 294 293 292 292 292 291 291 291 291 291 290 290 290 290 289 288 288 288 288 288 288 288 288 287 287 287 286 286 286 286 285 285 285 284 284 284 284
320 321 322 322 322 322 322 321 322 325 326 326 326 326 325 325 326 324 324 323 321 319 318 317 312 304 298 296 295 296 296 296 296 296 297 298 298 298 298 297 298 299 299 299 298 298 297 295 294 293 292 292 292 291 291 291 290 290 290 291 291 290 289 288 288 288 288 288 287 288 288 287 287 287 286 286 286 286 285 285 284 284 284 283 283
319 320 322 323 324 324 324 323 322 324 325 326 326 325 324 324 325 324 323 322 320 319 318 317 311 302 296 296 295 295 295 295 295 295 296 297 297 297 297 297 299 299 299 299 299 298 297 296 294 294 293 292 292 291 291 290 290 290 290 290 290 290 288 287 287 288 289 288 287 287 287 287 287 286 286 286 286 286 285 285 284 284 283 283 283
317 318 319 321 322 322 322 323 323 324 324 325 326 325 324 324 324 323 323 321 321 319 319 318 312 301 295 295 295 294 295 294 295 295 295 296 297 297 297 297 298 299 299 300 299 298 297 296 295 294 293 293 292 291 291 290 290 290 290 290 290 289 289 288 287 288 289 288 287 287 287 287 286 286 286 286 286 285 285 284 284 283 282 282 283
315 317 319 320 321 322 322 324 324 324 324 325 325 323 323 324 323 323 323 321 321 319 318 318 313 302 295 295 295 294 295 294 294 295 295 296 296 296 297 297 298 299 300 300 299 298 298 297 295 294 293 292 292 291 291 290 290 290 290 290 290 289 289 288 288 288 288 288 287 287 287 287 286 286 286 286 285 285 285 284 284 283 283 283 283
314 316 317 319 320 321 322 322 323 324 324 323 323 322 322 323 323 322 321 321 320 319 316 315 312 302 295 295 295 295 295 295 294 295 295 296 296 296 296 297 298 299 300 300 299 299 298 297 296 294 293 292 291 291 290 290 290 290 290 290 289 289 289 288 288 287 288 288 287 287 286 286 286 286 286 285 285 284 284 284 284 283 283 283 283
312 312 313 315 318 319 320 321 322 322 322 322 322 322 323 323 322 321 320 320 320 319 315 313 310 302 295 295 295 295 295 294 294 295 295 295 295 296 296 297 298 299 300 300 299 299 299 297 295 294 293 292 291 291 290 290 290 290 290 289 289 289 289 288 288 287 287 287 287 286 286 286 286 286 285 285 284 284 284 284 283 283 283 282 283
310 310 310 312 315 317 319 320 321 322 321 320 321 321 322 321 321 320 319 319 320 318 315 312 308 301 296 295 296 295 295 295 294 295 295 295 295 295 296 297 298 300 300 300 300 299 298 297 295 294 293 292 291 291 291 291 290 290 290 289 289 289 289 288 287 287 287 287 287 286 286 286 285 285 285 285 284 284 284 284 283 283 282 282 282
308 309 310 311 312 314 315 316 317 318 319 319 319 320 320 319 318 318 318 318 318 317 314 311 307 301 296 295 295 295 295 295 295 295 295 295 295 295 296 297 298 300 300 300 300 299 298 297 296 295 294 293 293 292 291 290 290 289 289 289 289 289 289 288 287 286 286 287 286 286 286 285 285 285 285 284 284 284 284 284 283 283 282 282 282
309 310 312 312 313 313 313 314 315 317 319 320 320 320 319 317 317 317 317 317 317 317 314 310 305 299 295 295 295 294 294 294 294 294 294 294 294 295 296 297 299 300 300 299 299 299 298 297 297 296 296 296 295 293 291 290 290 289 289 289 289 289 288 288 287 286 286 286 286 286 286 285 285 285 285 285 284 283 283 284 283 282 282 282 282
312 313 315 315 316 316 316 317 317 318 319 320 320 320 318 317 316 317 317 317 316 316 314 309 303 298 295 294 294 294 293 293 293 293 293 293 294 295 296 297 299 300 300 299 299 299 298 297 297 297 297 297 297 295 292 290 289 289 288 288 288 288 288 288 287 286 286 286 286 286 285 285 285 285 285 285 284 283 283 283 283 282 282 282 282
314 315 316 317 317 317 318 319 319 319 319 319 319 318 317 317 317 317 317 316 315 314 312 307 301 296 294 294 293 293 293 293 292 292 292 293 293 294 295 297 299 300 300 299 299 298 298 297 297 297 297 297 297 296 293 290 288 288 288 287 287 287 287 287 287 286 286 286 286 286 285 285 285 285 285 285 285 284 283 283 283 282 282 282 282
315 315 315 316 316 317 317 318 318 318 318 317 317 317 316 316 316 316 316 316 314 312 309 305 299 295 293 293 293 292 292 292 292 292 292 292 293 294 295 297 299 300 299 299 299 298 298 297 297 297 297 296 296 296 293 289 287 287 287 287 287 286 286 287 286 286 286 286 286 286 285 285 284 284 285 285 285 284 283 283 283 282 282 282 282
Wind_Speed
11 11 11 10 9 8 8 7 6 6 5 5 5 6 7 8 5 4 4 4 5 5 4 4 5 4 4 9 7 3 3 2 2 2 2 4 5 6 7 7 7 7 8 8 8 9 9 9 10 10 10 10 11 11 12 12 13 13 13 14 14 15 16 17 18 19 20 21 22 23 23 24 24 25 25 26 27 29 31 32 34 36 37 39 40
12 12 11 11 9 9 8 7 6 6 7 7 7 7 8 8 7 6 6 7 8 8 6 3 4 3 3 7 4 4 1 2 2 3 1 3 4 6 7 7 7 7 7 7 8 8 8 9 9 9 9 10 10 11 11 11 12 12 13 14 15 16 17 18 19 20 21 22 23 23 24 24 24 25 26 27 29 31 33 35 37 39 40 42 42
13 12 11 10 10 9 9 8 8 8 8 9 9 9 9 9 8 7 6 8 7 5 7 5 4 4 1 4 3 3 1 3 3 4 1 2 4 6 6 6 6 6 6 6 7 7 8 8 8 8 8 9 10 10 10 11 11 12 13 14 15 17 18 19 20 21 22 22 23 23 24 24 25 26 28 30 32 35 37 38 40 42 43 43 42
14 13 12 11 10 11 10 10 10 10 10 10 10 9 9 9 9 8 5 5 3 1 4 4 4 3 1 2 2 0 3 3 4 4 2 1 5 6 5 5 5 5 5 6 6 6 7 7 7 7 7 8 8 9 9 10 11 12 13 15 16 18 19 20 21 22 22 23 23 24 25 26 27 29 32 34 36 38 39 41 42 43 43 43 42
14 14 13 12 12 12 12 11 11 11 11 11 10 10 10 9 9 8 4 3 2 0 1 2 4 2 2 2 2 2 3 4 5 4 3 2 5 5 5 4 4 4 4 5 5 6 6 6 6 6 6 7 7 8 9 10 12 13 14 16 17 18 20 21 22 22 23 24 24 25 27 28 30 32 34 36 38 39 41 42 42 43 42 42 40
15 14 14 13 13 14 13 12 12 12 11 11 11 11 10 8 6 6 4 3 2 2 2 4 4 2 4 5 4 4 5 5 5 3 3 3 4 4 4 3 3 3 4 4 4 5 5 5 5 5 6 6 7 8 10 11 12 14 15 17 18 19 20 22 22 23 24 25 26 27 28 30 32 34 36 37 39 40 42 42 42 42 40 41 40
16 15 14 14 15 15 14 13 12 11 12 13 13 12 9 7 6 5 4 4 4 4 4 5 4 3 5 6 5 6 7 6 5 3 3 4 4 3 3 3 3 3 3 4 4 4 4 4 4 4 5 6 7 9 10 12 13 14 15 17 19 20 21 22 23 24 25 26 27 29 30 32 34 35 37 38 40 41 42 42 41 40 38 40 39
17 15 15 15 16 16 14 12 12 13 13 13 13 11 8 7 7 6 5 6 7 7 6 5 5 5 6 7 7 8 8 7 5 4 5 6 5 3 2 2 2 2 3 2 2 3 3 3 3 4 5 7 8 9 11 12 13 14 16 18 19 21 22 23 24 24 26 27 29 30 32 33 35 36 38 39 40 41 42 42 41 40 39 39 37
17 16 15 16 16 16 14 13 15 15 14 13 12 10 9 9 9 8 8 8 9 9 6 6 7 7 6 8 10 9 9 7 5 5 6 6 5 4 2 1 1 2 2 1 1 2 2 2 3 4 5 7 8 9 11 12 13 15 17 18 20 21 22 23 24 25 27 28 30 31 32 34 35 37 38 40 41 41 42 42 42 41 39 37 35
18 17 16 16 17 16 15 16 17 16 15 13 12 11 11 10 9 10 10 9 9 7 7 7 8 8 7 8 9 9 11 8 6 7 7 7 5 4 2 1 0 1 0 0 1 1 2 2 3 4 5 7 8 10 11 12 14 16 17 19 20 21 23 24 25 26 27 28 30 31 33 34 36 37 39 40 41 42 42 41 41 39 37 35 35
19 19 18 18 18 18 17 17 18 17 16 14 14 14 13 10 9 11 11 10 8 7 8 9 9 10 10 8 6 8 10 8 7 9 8 7 6 4 2 1 1 1 0 0 0 1 2 3 4 5 6 7 9 10 11 13 15 17 19 20 21 21 22 24 25 26 27 29 30 31 33 35 36 38 39 41 41 42 41 39 38 37 35 35 35
21 21 21 20 20 20 20 19 20 19 18 17 16 16 14 12 12 13 12 11 10 9 9 9 8 11 11 8 5 7 9 9 9 10 9 8 6 3 2 2 2 1 1 1 1 2 3 4 5 6 7 8 9 11 12 14 16 18 19 20 21 21 22 24 25 26 27 29 30 32 33 35 37 38 39 40 40 40 40 38 37 36 35 36 36
22 23 23 23 22 22 22 22 22 21 20 19 17 17 15 14 14 14 13 12 11 10 10 10 10 13 12 9 7 8 10 10 10 11 10 9 7 4 3 3 2 1 1 2 2 3 4 4 6 7 8 9 10 11 13 16 17 18 19 20 20 21 22 23 25 25 27 28 30 32 34 35 37 38 39 39 39 39 38 37 37 36 35 36 36
23 23 24 24 24 24 24 23 23 22 21 19 18 18 18 16 15 15 14 13 13 12 12 12 14 16 13 11 10 11 11 11 10 11 10 10 8 5 4 3 2 2 2 3 3 4 4 5 6 7 8 9 10 13 14 16 18 19 19 20 20 21 22 23 24 25 27 29 31 32 34 36 36 37 38 38 39 39 38 37 37 36 36 36 36
23 23 23 24 24 25 24 23 23 22 22 20 19 20 20 18 16 16 15 15 16 15 13 14 16 16 15 13 12 14 13 12 13 12 11 11 9 6 5 4 3 3 3 4 4 5 5 5 6 7 8 10 12 13 15 17 18 19 19 20 20 21 22 23 24 26 28 29 31 33 34 35 36 36 37 37 38 39 39 39 38 36 36 35 35
25 24 24 24 24 24 25 24 24 23 22 21 21 21 20 19 17 17 17 17 18 18 16 17 17 18 18 15 13 15 15 15 16 14 13 12 10 7 5 5 5 4 4 5 5 6 6 5 5 7 8 10 12 13 15 16 18 18 19 20 21 21 22 23 25 26 28 29 31 32 33 34 35 36 37 37 38 39 40 39 38 36 34 33 34
28 27 27 26 26 25 25 25 24 24 23 22 22 22 20 19 18 18 18 18 18 18 18 19 21 20 20 16 14 16 17 16 16 15 15 14 11 8 6 5 6 5 5 6 6 7 7 5 5 6 8 10 11 13 15 16 18 18 19 20 21 22 23 24 25 26 27 29 30 31 32 33 35 35 36 38 38 39 39 38 37 34 32 32 33
31 30 29 29 28 28 27 27 26 26 25 24 23 22 21 21 20 19 19 18 17 19 20 20 21 22 22 21 17 16 17 18 18 17 17 16 13 10 8 7 6 6 6 6 7 8 7 5 5 6 8 10 11 13 15 17 18 19 20 21 22 23 23 24 25 26 27 29 30 31 32 33 34 35 36 38 38 38 38 37 35 32 31 32 33
33 32 32 31 30 29 28 28 27 27 26 25 25 24 22 22 21 21 20 19 19 21 20 19 21 23 23 24 23 17 15 20 22 19 19 19 18 15 12 10 8 8 7 7 8 9 8 6 5 6 8 10 12 14 15 16 17 18 19 20 22 23 24 25 25 26 27 29 30 31 32 33 34 35 36 37 37 37 36 35 33 31 30 32 33
35 34 33 32 31 29 29 28 28 28 27 27 26 25 24 23 23 22 21 21 22 22 20 20 22 23 21 23 26 22 16 19 22 20 17 18 21 20 17 14 11 10 9 8 8 9 9 7 5 7 8 10 12 13 15 16 17 18 19 20 21 23 24 25 26 27 28 29 30 31 32 32 33 34 35 35 36 36 35 33 32 29 29 31 32
36 35 34 32 31 30 29 29 28 28 29 29 28 27 26 26 25 24 23 23 24 22 21 21 22 23 22 22 26 26 21 19 23 23 19 17 19 21 20 17 14 12 11 9 8 8 10 9 6 8 9 10 11 13 15 16 17 18 19 20 21 23 24 25 26 27 28 29 30 31 31 32 32 33 33 34 34 34 33 32 30 28 29 31 31
36 35 35 33 32 31 30 30 29 29 29 29 29 29 29 29 27 26 25 25 25 24 22 21 21 23 24 22 24 28 26 24 25 25 23 20 17 17 18 17 14 13 13 10 8 7 9 9 7 9 9 10 12 14 15 16 17 19 20 21 21 22 23 25 26 27 28 29 30 30 30 31 32 32 33 33 33 33 32 30 28 28 29 31 30
37 36 36 34 33 32 32 31 30 31 31 31 30 30 30 30 28 27 27 27 26 25 24 22 21 22 24 24 24 27 28 26 25 24 24 22 18 15 17 17 14 13 12 10 7 5 6 7 8 9 9 11 12 14 15 16 17 18 19 20 21 22 23 24 26 27 27 29 29 29 30 31 31 32 32 32 32 32 31 29 27 27 28 30 30
38 38 38 36 35 35 34 33 33 33 33 33 31 30 30 29 28 28 29 28 27 27 28 26 24 23 23 23 24 26 26 25 23 22 22 20 17 16 17 18 16 13 11 9 7 4 4 6 8 9 9 10 12 14 15 16 17 17 18 19 20 22 23 24 25 27 28 29 29 29 30 31 31 31 32 32 31 31 30 28 26 26 26 28 29
41 40 39 38 37 36 36 35 36 35 34 34 33 31 31 30 30 30 30 29 29 29 29 28 27 26 23 22 24 27 26 24 23 22 21 20 18 17 18 18 16 13 11 10 8 5 6 8 8 9 10 10 11 13 14 15 16 16 17 18 20 21 23 24 25 27 28 29 29 30 30 31 31 31 31 31 31 31 30 27 27 26 26 27 29
41 41 40 38 38 37 37 37 37 36 35 35 34 33 32 32 32 32 32 31 30 29 28 26 27 26 24 23 25 28 28 26 24 23 22 22 20 19 19 17 14 11 11 10 8 7 8 9 9 9 10 10 11 12 13 13 14 15 16 18 19 21 23 24 25 27 28 29 29 29 29 30 30 30 30 30 30 31 29 27 26 26 26 27 29
41 40 39 39 39 38 38 38 37 37 36 36 35 34 33 33 34 34 34 33 31 30 27 26 27 27 26 26 25 28 29 27 25 24 23 22 20 20 19 17 14 11 10 9 7 8 9 9 9 10 10 10 12 12 13 13 14 15 16 18 19 21 23 25 26 27 28 29 28 28 29 29 30 30 30 31 30 31 29 26 26 27 25 26 29
40 39 39 38 38 38 38 38 38 38 37 36 35 35 33 33 34 35 36 36 33 30 27 27 29 28 28 27 26 29 30 26 25 25 23 22 21 19 18 15 13 11 10 9 8 8 9 9 9 10 10 11 11 12 12 13 14 16 17 18 20 21 23 25 26 26 27 29 28 28 29 29 29 29 30 31 30 30 29 26 26 26 26 27 28
39 38 37 37 36 37 37 38 38 38 37 36 36 35 34 33 34 35 35 34 32 30 27 28 30 30 30 29 28 29 30 27 27 26 24 23 21 19 17 14 12 10 9 8 7 8 8 9 9 10 10 10 11 12 12 13 14 16 17 18 20 21 23 25 25 26 27 28 28 27 28 28 28 29 30 30 30 30 28 26 25 26 26 27 29
38 37 36 36 35 36 36 37 37 37 37 37 36 36 35 33 32 32 30 29 29 29 28 29 31 32 33 32 30 31 31 29 28 27 25 24 22 19 17 14 11 9 8 7 6 7 8 8 9 10 10 10 11 12 12 13 15 16 17 19 20 21 23 24 25 25 26 27 27 26 27 27 28 29 30 30 29 29 28 26 25 26 26 27 29
38 37 36 35 35 35 36 36 37 37 37 37 37 36 35 33 31 29 27 26 27 29 31 32 33 33 34 34 32 33 33 30 29 27 26 24 21 19 16 13 11 9 7 6 6 7 8 8 9 9 10 10 11 12 13 14 15 16 18 19 20 21 23 24 24 24 25 26 26 26 26 27 28 29 29 29 28 28 27 26 26 26 25 26 28
38 37 36 36 35 35 36 36 37 37 37 38 38 37 36 33 30 27 26 26 29 31 32 32 31 31 32 32 33 35 34 31 30 28 26 24 21 18 15 13 11 9 7 6 5 6 7 8 9 9 9 10 11 12 12 14 15 16 18 19 20 21 22 23 24 24 24 25 25 25 25 27 28 29 29 28 28 27 26 26 26 26 25 26 27
38 38 37 36 36 36 35 36 37 38 39 39 39 39 37 33 29 28 27 26 27 30 31 30 31 31 32 32 34 36 34 32 30 28 26 24 21 18 15 13 11 9 7 6 5 6 7 8 9 9 9 10 12 12 12 13 14 16 17 19 20 21 22 22 23 23 23 24 25 24 25 27 28 28 28 28 27 27 26 26 26 25 25 25 27
39 38 37 37 37 36 36 36 37 38 39 40 41 42 39 34 30 29 30 27 26 29 32 33 34 34 32 33 35 36 34 32 30 28 26 23 20 18 15 13 11 10 8 6 6 6 7 9 9 10 10 10 12 13 12 13 14 15 16 18 20 21 21 22 23 23 23 23 24 24 25 26 27 27 28 28 27 27 26 26 26 25 24 24 26
38 38 37 37 36 36 36 37 36 35 36 38 42 45 42 37 30 29 32 30 27 28 32 35 36 34 33 36 37 36 34 32 30 28 26 23 20 18 16 14 12 10 9 7 7 6 7 9 9 10 10 11 12 12 12 13 14 15 16 17 18 20 21 21 22 22 22 22 23 24 25 26 27 27 27 27 27 26 26 26 25 25 24 24 25
37 37 36 36 36 37 36 35 34 33 33 36 41 46 46 39 30 30 34 32 27 28 30 32 32 32 35 38 37 36 34 32 30 28 26 23 21 18 16 14 13 11 10 9 8 8 7 8 9 10 10 11 12 12 12 14 14 15 16 16 17 18 20 21 21 21 21 20 22 24 26 26 26 27 26 27 27 26 26 26 24 24 24 23 24
36 36 36 36 35 35 35 34 33 32 32 34 38 45 48 40 29 31 36 33 28 27 26 27 29 32 36 38 37 35 34 32 31 28 26 23 21 19 17 15 14 12 11 10 9 9 8 8 9 10 10 10 11 12 12 13 14 15 15 17 17 18 20 20 21 21 20 19 21 23 25 25 25 26 26 26 26 26 26 25 23 23 22 22 23
35 35 35 34 33 35 36 34 32 29 29 31 34 42 48 39 27 31 37 35 30 27 25 25 27 31 35 36 36 35 34 32 30 28 26 24 21 19 17 16 15 13 11 11 10 9 9 9 9 10 10 10 11 12 13 14 14 15 15 16 17 18 20 19 19 20 20 20 22 23 24 25 25 25 26 26 26 26 25 24 23 22 21 20 22
34 33 33 33 33 34 33 28 26 26 27 30 34 41 46 39 28 33 39 37 31 28 26 25 26 31 35 35 35 34 33 31 30 28 26 24 22 20 18 17 15 14 12 11 11 10 10 11 11 11 10 11 11 12 13 14 15 15 15 16 16 17 19 19 18 19 19 19 22 23 23 24 24 24 24 25 25 25 24 23 22 21 20 20 21
32 31 31 31 29 28 26 23 24 26 28 31 34 37 40 38 34 38 40 37 30 27 27 26 28 32 35 35 34 33 31 30 29 28 26 24 22 20 19 18 16 15 13 12 12 11 12 12 12 12 11 11 12 12 13 13 14 16 17 18 18 18 18 18 18 18 18 19 21 22 21 21 22 23 23 24 24 24 22 21 21 20 19 20 21
28 28 28 28 27 27 26 25 26 28 30 33 34 34 34 35 37 39 38 34 29 26 26 26 30 34 35 35 34 32 30 30 29 28 26 24 23 21 20 18 17 16 14 13 12 12 13 13 13 13 12 12 12 12 13 13 14 16 17 18 19 19 18 18 18 19 20 19 20 21 21 20 21 23 24 23 24 23 22 20 20 20 19 19 20
25 25 26 26 26 27 28 28 28 29 30 33 35 36 35 33 34 35 35 34 28 26 27 28 31 36 36 35 34 32 31 31 30 29 27 25 24 22 20 19 18 17 15 14 13 13 14 14 14 13 13 13 13 12 13 14 14 16 17 18 19 20 20 19 18 20 22 21 19 20 20 19 19 22 23 23 23 22 21 19 18 18 17 17 19
23 24 24 25 26 26 28 31 32 29 29 30 33 35 36 33 32 33 36 34 27 25 28 30 32 36 37 36 35 34 33 33 32 31 28 26 25 23 22 21 19 18 16 15 14 13 14 15 15 14 14 13 13 13 14 14 15 16 17 18 19 20 21 20 19 20 22 21 19 18 19 18 19 20 22 22 22 21 19 18 17 16 16 16 19
24 25 26 27 27 27 27 28 29 28 28 28 27 29 31 31 30 33 36 33 26 25 28 29 32 36 38 38 37 36 35 34 33 31 29 27 26 24 23 22 21 19 17 16 14 14 14 15 15 15 14 14 14 14 14 15 16 17 18 19 19 20 21 22 22 21 22 23 20 18 18 17 18 19 20 21 20 19 18 17 16 15 15 16 18
23 25 26 27 26 26 27 26 26 26 26 23 21 24 28 30 31 34 35 31 26 26 26 27 32 37 39 39 39 38 37 35 34 32 30 29 27 25 25 24 22 20 18 16 15 14 14 15 15 16 15 15 14 14 15 16 17 17 18 19 20 21 21 22 22 22 22 23 22 18 17 16 16 18 19 19 18 17 17 16 15 14 14 15 17
19 21 23 26 27 28 28 26 25 25 23 21 21 24 27 31 33 35 35 32 27 26 26 28 33 37 39 40 39 38 37 36 35 34 32 30 28 27 27 25 23 21 18 16 15 14 14 14 15 16 16 15 15 16 17 17 17 17 18 19 20 20 21 21 21 21 22 23 23 20 17 16 16 17 18 19 16 15 16 16 15 13 13 14 16
13 14 16 18 21 23 25 26 26 25 23 23 24 25 26 30 34 35 33 30 26 26 26 29 33 37 39 39 38 37 37 36 36 34 32 31 29 28 27 26 23 21 19 17 15 14 14 14 14 16 16 16 17 19 20 19 18 18 18 19 20 20 21 21 20 19 20 22 23 20 17 17 17 16 17 18 16 13 15 16 14 12 11 13 16
10 10 11 13 14 16 19 20 21 22 21 21 22 22 23 27 31 31 29 27 27 28 28 29 33 37 38 38 37 37 36 35 34 33 32 31 29 29 28 26 24 22 19 17 15 14 14 13 14 15 16 17 20 21 22 21 19 19 19 19 20 20 21 21 20 17 18 21 22 20 18 18 19 16 15 16 15 13 13 14 13 11 11 12 15
10 11 11 13 14 15 16 17 18 19 18 18 18 18 19 22 24 25 25 25 27 28 29 30 34 36 38 38 38 36 35 34 33 32 32 31 30 30 29 27 25 23 21 18 16 15 14 13 13 14 15 18 21 23 24 23 21 21 20 20 21 21 21 22 20 18 19 20 21 20 18 18 19 18 15 14 13 12 13 12 11 11 11 12 14
12 13 13 14 15 15 15 16 16 15 14 14 14 14 15 17 20 21 23 24 26 28 29 32 35 37 38 38 37 35 34 33 32 32 32 32 31 31 30 28 26 25 21 18 17 16 15 14 13 14 16 18 22 24 25 24 23 22 21 20 21 21 21 22 21 20 20 21 20 19 18 17 17 19 17 13 9 10 13 13 11 10 11 11 12
13 14 14 14 14 14 14 15 15 13 12 12 13 14 15 17 20 22 23 25 27 28 30 33 36 38 38 37 36 35 33 32 32 32 32 32 32 31 30 29 28 26 21 19 19 18 16 15 15 15 17 19 22 24 25 24 23 22 21 21 20 21 21 21 22 21 20 21 22 20 18 17 16 17 18 15 11 8 10 13 12 10 10 11 11
Wind_Direction
203 203 201 204 208 209 210 212 213 222 232 242 256 271 278 278 281 287 288 282 284 288 307 336 331 337 341 318 320 73 70 354 351 3 72 83 82 89 87 83 76 67 61 56 54 48 44 39 37 38 34 32 30 26 24 21 20 18 14 9 5 2 358 355 352 350 349 349 348 347 346 345 344 343 342 342 342 342 343 343 343 343 343 343 342
209 209 207 207 210 212 216 220 221 229 243 253 258 264 268 270 268 274 278 276 282 279 270 287 310 318 323 313 340 94 54 40 21 329 66 85 92 95 89 86 75 67 60 56 54 47 43 40 42 44 36 29 28 26 23 19 16 12 7 3 360 356 354 352 351 350 349 349 348 347 345 344 343 343 343 343 344 345 346 346 345 345 344 344 343
212 213 212 210 212 217 220 224 229 234 245 253 262 266 265 268 266 273 282 280 288 265 240 237 266 278 294 330 22 87 355 29 2 321 340 91 105 96 90 88 75 66 58 55 53 45 42 40 44 50 38 27 27 24 18 14 10 5 1 358 355 353 352 351 350 350 349 349 348 346 345 344 344 345 346 347 348 348 348 348 346 346 345 344 343
217 217 215 212 215 221 224 228 236 240 246 253 266 271 263 266 269 274 279 280 309 222 217 211 236 263 106 51 62 341 317 337 317 300 277 148 111 101 96 87 74 67 55 54 47 39 40 38 40 44 37 28 23 18 10 7 3 359 356 354 352 352 351 351 350 350 349 349 348 347 346 346 348 349 350 351 350 350 349 348 347 346 345 344 343
224 222 218 216 217 223 227 231 239 246 252 258 265 267 262 261 260 265 273 286 312 296 252 225 230 236 147 162 183 240 285 291 289 279 243 156 114 112 107 88 73 68 55 52 41 33 35 35 39 36 33 24 15 8 2 360 357 355 352 351 351 351 351 351 350 350 350 349 348 348 349 350 351 352 352 352 350 350 348 347 346 345 344 343 342
231 228 223 220 221 226 230 231 238 249 258 264 268 267 262 258 249 251 262 273 266 254 269 233 225 207 179 189 202 233 257 257 264 263 223 154 127 124 114 97 78 63 51 48 32 29 30 31 37 31 26 14 5 360 355 354 353 351 350 349 350 350 351 352 351 352 350 350 350 351 352 353 353 353 353 351 350 349 348 347 346 346 344 342 342
237 233 228 226 225 228 232 236 242 250 259 266 270 265 257 252 248 249 257 256 236 223 232 217 200 197 200 200 212 234 247 249 254 248 198 160 146 139 123 107 87 63 48 41 25 26 29 32 32 22 13 2 356 352 349 350 349 350 349 349 350 350 352 353 353 352 351 351 351 353 354 354 354 353 352 350 349 348 347 346 346 345 343 342 342
238 236 233 232 231 233 236 241 247 251 256 263 265 261 252 247 243 246 260 249 225 222 236 228 208 218 222 217 221 236 245 244 248 233 184 161 159 156 138 106 82 61 50 34 20 27 29 31 22 6 358 352 351 346 344 347 347 348 349 350 351 352 353 354 353 352 352 352 353 354 355 354 354 352 351 350 349 348 347 346 345 344 343 343 343
238 236 235 237 237 239 240 241 247 252 255 259 261 259 251 247 244 247 252 237 221 224 236 233 228 239 239 227 225 233 241 237 227 214 185 166 166 168 158 118 73 53 53 28 24 33 23 17 1 351 348 345 343 342 343 345 347 349 350 352 354 354 354 354 354 354 353 354 354 354 354 353 353 351 350 349 348 347 346 344 344 343 344 344 343
240 239 236 237 240 242 243 243 249 254 257 259 260 258 251 247 245 244 246 236 225 227 228 225 235 247 236 220 225 230 233 231 211 200 186 175 180 177 166 148 105 39 97 107 39 19 351 343 338 340 342 340 340 342 343 344 347 350 353 355 356 356 354 354 354 355 354 354 354 353 353 352 352 351 349 349 347 346 345 344 344 345 345 344 343
240 243 242 241 243 245 247 248 252 257 259 258 256 256 256 249 237 238 244 239 234 236 235 236 236 234 219 203 221 234 229 224 206 196 187 186 192 185 178 183 199 225 210 206 324 321 319 318 325 335 339 341 342 342 342 344 349 353 355 357 356 356 355 354 355 355 355 354 353 352 352 352 351 350 349 348 347 345 345 345 345 345 345 344 343
240 244 246 245 247 249 250 251 253 255 256 255 254 256 258 251 235 235 242 238 235 233 237 248 229 211 205 199 229 244 229 221 206 193 190 195 197 193 210 217 202 208 245 267 281 293 299 310 321 331 340 343 340 340 342 347 352 355 356 357 357 356 355 354 355 355 355 353 352 351 351 351 351 350 348 347 346 345 345 345 346 346 345 344 343
241 244 247 248 249 250 251 251 251 253 255 255 254 253 253 246 233 233 240 238 236 234 238 240 206 189 192 197 222 228 217 217 205 193 194 201 203 205 218 220 203 191 230 255 260 276 288 305 318 327 336 339 337 341 346 350 353 355 355 356 356 356 356 355 354 354 354 353 352 351 351 351 350 349 347 346 345 345 346 346 346 346 345 344 345
244 246 248 249 249 249 250 250 250 252 254 253 251 248 246 242 233 231 237 237 237 236 233 220 194 187 190 192 197 194 197 209 199 192 200 206 208 213 219 212 202 193 216 242 249 264 279 294 309 322 332 337 341 345 350 351 352 354 354 355 355 355 355 354 353 354 354 353 351 351 351 351 350 348 346 345 346 346 346 347 347 346 344 345 346
249 248 249 249 249 249 249 248 248 249 250 249 246 245 245 243 236 232 235 239 244 240 225 209 196 192 193 196 195 182 185 202 198 191 201 209 211 214 217 207 199 201 212 233 242 250 265 281 302 320 332 340 345 348 351 351 352 353 353 353 353 355 355 353 353 354 354 353 351 351 351 350 348 347 346 346 346 346 346 347 347 346 345 347 348
251 251 251 252 251 249 248 247 247 247 247 246 244 244 245 245 242 237 235 240 246 242 226 211 206 203 196 196 196 188 190 200 197 192 196 206 213 212 214 210 202 203 210 224 235 240 253 273 303 325 337 346 349 350 351 350 351 352 352 353 353 354 354 353 354 354 353 352 350 350 350 349 347 346 346 347 347 347 347 347 346 346 347 348 347
252 252 253 254 253 252 250 248 247 246 245 243 244 246 246 246 243 239 239 242 245 243 235 222 214 211 206 198 190 197 206 203 195 194 195 202 212 212 212 213 207 208 211 218 228 236 248 272 312 332 342 349 350 351 351 349 350 351 351 353 354 353 352 352 353 353 352 351 350 349 349 348 347 346 346 347 347 347 347 347 346 347 350 349 345
253 254 255 256 256 255 251 249 248 246 246 244 243 244 244 244 242 239 240 245 244 241 238 229 216 212 212 211 207 209 214 206 199 196 193 198 209 215 220 222 211 209 214 212 221 234 244 267 319 338 343 348 350 351 351 349 350 350 351 353 353 351 350 351 351 351 351 350 349 348 347 347 346 346 347 347 347 347 347 347 346 349 353 348 343
252 254 255 257 257 255 251 249 249 248 247 245 244 244 244 245 244 243 241 242 242 240 238 233 222 215 215 218 218 219 217 213 210 203 196 200 207 213 223 228 218 212 216 210 211 226 238 260 316 341 344 348 351 351 349 348 349 349 351 352 351 349 348 349 349 349 350 349 347 346 346 346 346 347 348 347 347 347 348 347 346 351 354 346 341
252 253 255 256 255 253 250 249 249 248 247 246 246 245 245 245 245 244 240 238 239 242 243 241 230 221 218 220 219 220 221 222 222 220 215 210 206 208 214 218 215 214 216 209 207 218 229 249 307 340 347 349 349 348 348 347 346 348 351 352 349 347 347 348 347 347 348 347 345 344 345 346 347 349 349 348 347 347 348 348 347 352 353 344 340
251 252 254 254 253 251 249 248 248 246 246 247 248 247 244 243 245 245 241 237 237 240 247 248 239 228 224 225 222 220 221 223 223 223 227 223 212 210 210 209 210 212 214 208 202 212 224 241 297 336 345 347 346 345 346 346 345 347 352 351 347 346 346 345 344 344 346 345 344 344 346 347 347 349 348 348 348 348 348 348 347 352 351 343 341
250 252 253 253 253 252 250 248 247 246 246 247 247 246 244 242 245 247 243 241 240 241 247 251 248 238 230 229 226 221 219 220 219 219 223 225 223 218 210 207 209 211 212 208 197 201 218 238 290 330 341 343 345 345 344 344 345 347 351 348 344 343 343 343 342 343 345 344 343 344 345 347 348 349 348 348 349 348 348 347 347 352 350 344 343
250 252 253 253 252 253 252 249 248 247 247 247 247 247 246 245 245 244 242 243 243 244 246 247 247 243 236 234 230 222 221 224 223 222 223 223 225 220 207 205 211 211 210 210 202 196 209 238 286 321 335 338 340 340 339 341 343 346 347 343 340 341 340 341 341 342 344 344 344 345 346 348 348 348 348 349 349 348 348 347 347 351 349 343 343
251 252 253 252 251 252 251 249 248 248 248 248 249 249 248 245 244 243 242 244 245 245 244 243 244 245 244 241 231 221 221 226 228 228 227 227 225 216 204 204 210 208 204 207 207 202 217 244 279 306 323 331 332 332 334 337 341 344 342 338 337 339 339 341 342 342 344 344 344 345 347 349 348 348 349 349 349 348 347 347 346 351 351 343 344
254 254 255 254 252 252 252 251 250 251 251 250 250 249 247 244 242 242 243 245 246 245 245 245 243 244 248 247 232 219 217 220 223 225 224 223 220 213 204 203 207 203 197 198 200 204 229 246 268 294 311 321 323 326 331 336 339 340 338 337 337 338 340 341 342 343 344 345 345 346 348 348 347 348 349 349 349 347 347 347 345 350 353 347 345
259 260 261 258 256 255 255 254 253 253 252 251 251 249 247 244 242 243 244 247 248 247 246 245 240 239 245 246 235 222 217 217 220 222 223 220 217 213 206 200 200 200 199 198 198 208 228 246 268 292 307 314 318 325 332 336 338 336 335 337 337 339 342 342 343 344 345 345 346 347 347 347 347 349 349 348 348 346 347 348 345 349 354 351 347
261 262 262 260 258 256 255 254 253 252 252 251 251 248 246 244 244 244 245 246 247 247 245 241 240 242 245 244 237 226 220 219 220 222 223 220 218 217 212 204 197 195 201 206 205 215 232 250 273 292 301 308 315 324 332 336 335 333 335 339 339 341 343 342 344 345 344 344 345 346 347 347 348 349 348 348 347 345 346 347 347 348 352 353 350
261 262 261 259 258 256 254 253 252 251 251 251 250 248 246 245 245 247 247 245 243 243 243 240 240 244 245 244 240 229 222 220 220 222 222 219 218 219 218 215 208 200 201 207 211 221 239 257 276 290 296 304 314 323 331 332 330 331 336 340 341 342 343 342 344 345 344 344 345 346 347 347 349 348 347 347 346 345 345 346 347 348 349 351 350
259 260 260 259 258 256 254 253 251 251 251 250 250 249 247 248 249 250 249 245 241 241 242 240 239 242 244 246 243 231 221 219 221 222 222 220 219 219 219 219 218 213 205 207 216 224 239 260 276 287 294 302 312 321 326 326 328 332 337 340 342 343 343 343 344 344 344 343 344 346 347 347 348 347 347 346 346 344 344 344 345 346 348 349 348
258 259 259 258 257 255 253 252 251 250 250 250 249 248 249 251 252 251 249 245 241 242 243 242 241 243 244 247 244 229 219 218 221 222 221 221 221 221 220 218 219 221 213 210 223 231 242 261 272 283 293 301 309 316 321 323 329 335 338 341 343 343 344 344 344 343 344 343 343 345 346 347 346 346 346 346 345 343 342 342 342 344 348 349 347
257 258 258 258 256 255 253 252 251 249 249 248 248 247 249 251 251 250 250 247 243 243 244 244 244 244 243 243 239 225 216 217 220 221 221 221 222 222 222 221 220 220 218 220 232 241 253 267 273 282 292 299 307 314 320 325 331 336 339 342 343 343 344 345 343 343 343 342 342 344 346 346 345 344 345 346 344 342 340 338 338 340 344 347 348
257 257 257 257 256 255 253 252 251 249 248 247 246 246 248 250 251 251 251 249 245 246 250 250 246 245 243 238 230 221 216 217 219 220 221 221 222 223 222 223 225 223 222 230 247 255 262 272 278 284 292 299 307 315 322 327 332 336 339 342 342 341 344 344 342 342 342 341 341 343 345 344 343 344 345 346 343 341 339 336 335 337 341 347 349
256 256 256 255 255 254 253 251 250 250 249 248 247 246 245 248 251 250 251 251 250 252 255 252 249 251 245 231 220 216 215 217 219 220 220 220 221 222 223 224 226 227 228 234 250 263 266 271 278 286 295 302 307 315 322 327 332 336 340 342 340 339 342 343 342 340 340 340 341 343 345 343 343 344 345 345 343 341 338 335 335 335 339 346 349
255 254 254 254 254 254 253 252 251 249 248 248 247 245 244 246 249 249 248 249 253 255 252 249 252 253 241 222 214 214 214 217 219 219 220 221 222 223 224 225 225 228 233 238 247 259 269 274 280 290 297 300 305 313 322 327 332 336 339 340 338 337 340 341 341 339 338 340 342 343 344 343 344 346 345 343 342 341 337 335 336 334 335 342 348
251 252 252 253 253 253 254 254 253 250 248 247 247 245 243 243 248 252 249 249 256 259 254 251 254 249 230 215 211 212 214 216 217 218 218 220 222 222 223 225 226 229 236 245 251 255 266 276 283 290 295 299 305 313 322 326 331 336 338 338 337 335 337 339 341 338 336 340 343 341 342 344 345 346 345 342 342 340 337 336 336 334 333 338 345
250 251 252 252 252 253 253 254 254 252 249 246 246 245 242 240 248 256 251 247 255 263 258 252 250 239 220 212 211 212 214 217 217 217 218 219 221 222 223 224 225 229 237 248 257 259 264 273 280 286 291 297 305 313 321 325 330 334 335 336 336 334 334 338 340 338 337 341 344 343 342 344 345 345 344 342 341 340 338 337 336 334 332 335 343
248 249 250 251 251 252 253 254 253 252 249 246 247 247 243 238 247 259 252 244 249 259 258 250 243 231 217 213 214 213 215 218 218 219 220 220 222 223 224 225 225 229 238 248 259 264 269 275 279 285 291 296 305 314 321 324 327 331 333 335 335 333 333 338 340 338 338 341 344 344 342 343 345 344 342 342 341 340 339 337 335 333 330 333 341
247 248 250 250 249 250 252 253 252 250 249 246 248 250 242 236 248 262 252 242 243 251 253 247 238 227 218 216 217 217 218 220 220 221 222 222 224 225 225 226 226 231 240 250 259 266 273 277 278 284 291 298 307 314 319 322 324 327 331 332 332 332 333 337 339 339 340 341 343 344 343 342 344 343 342 342 341 341 340 338 336 332 328 332 341
243 245 246 245 247 250 252 253 250 249 250 247 249 250 242 236 251 265 253 240 239 247 249 243 233 225 219 218 219 220 222 223 223 224 224 224 225 225 226 226 227 233 242 250 258 267 274 278 280 285 293 300 307 313 317 320 322 324 328 328 330 333 332 334 339 341 341 340 340 343 345 342 341 342 343 342 341 341 341 339 338 333 331 336 342
240 242 244 247 252 253 252 254 255 253 252 250 249 249 243 239 251 260 250 236 237 247 248 239 229 223 220 219 220 222 224 225 226 226 226 227 227 226 226 226 228 235 243 249 257 267 273 277 281 287 294 299 305 311 314 317 320 321 325 327 329 333 333 333 337 338 338 339 338 341 346 343 340 341 343 343 341 341 343 341 338 337 339 343 344
239 242 245 249 253 250 247 252 256 256 255 253 249 243 240 242 250 254 245 236 240 249 250 241 229 221 218 218 219 221 223 224 225 225 225 227 227 228 228 228 230 236 241 249 257 265 272 277 282 286 291 295 301 308 311 315 319 320 324 327 328 331 333 335 336 334 335 342 341 339 343 345 342 341 342 343 342 342 344 343 341 343 347 346 344
238 240 242 243 245 245 248 252 253 253 256 258 255 247 241 244 253 253 244 238 244 252 253 248 233 221 217 217 218 219 221 223 224 224 224 225 226 227 227 228 232 237 241 249 256 263 270 277 281 284 288 293 299 305 309 314 319 320 323 326 326 328 331 333 334 331 332 340 343 339 342 346 345 341 341 342 343 343 345 346 346 348 347 344 345
238 240 241 243 244 246 250 254 254 253 255 259 261 255 246 244 252 252 243 239 245 254 256 251 236 223 218 217 217 219 221 222 224 224 224 226 226 226 228 230 232 236 241 247 253 262 271 278 282 283 287 293 298 305 310 315 319 319 322 324 324 327 328 328 331 331 331 335 341 341 342 346 347 343 341 343 345 345 345 347 349 346 343 344 346
236 236 236 238 241 242 244 250 253 253 254 257 260 257 248 246 252 251 242 240 249 258 257 249 235 226 221 220 220 221 222 224 224 225 226 227 226 226 228 230 232 236 241 247 253 264 273 279 283 284 287 294 298 306 311 314 316 318 320 322 323 325 326 326 329 331 330 332 338 343 343 346 348 344 341 344 347 346 345 347 348 342 339 342 345
239 237 234 232 234 236 239 244 247 249 254 256 255 254 249 246 250 250 243 242 252 260 257 247 233 226 224 225 224 223 224 224 225 226 227 227 227 227 228 230 232 236 241 247 255 265 273 280 284 285 289 294 300 307 310 310 312 315 318 320 321 323 324 326 329 330 329 330 334 341 343 344 349 346 342 346 349 346 344 346 344 338 336 340 344
242 240 237 232 231 233 235 239 242 246 253 256 255 258 254 245 244 245 240 241 252 260 257 246 234 227 226 228 228 228 227 227 227 228 228 228 227 228 229 230 233 236 241 247 255 265 273 279 283 285 289 295 303 307 307 306 309 312 316 318 318 320 322 325 328 327 327 328 330 335 339 340 348 349 344 345 350 347 345 346 342 337 336 340 343
236 235 236 234 234 234 235 238 239 241 247 252 254 258 257 248 242 240 239 244 254 259 255 245 234 229 229 230 231 232 232 232 232 232 231 230 229 229 230 231 233 237 241 246 254 263 271 277 282 287 293 300 304 304 302 303 305 308 312 312 313 317 319 322 327 325 324 325 326 330 335 336 342 352 349 343 346 350 347 344 341 336 336 339 342
228 223 227 232 234 235 236 238 238 239 244 249 252 255 256 250 244 241 244 253 260 260 254 243 234 231 231 232 232 233 234 234 235 234 232 231 230 231 232 232 234 238 240 245 253 260 266 274 282 291 299 305 305 300 297 300 301 303 306 307 309 315 317 319 325 324 320 322 323 325 331 332 336 348 353 343 341 347 349 345 338 333 333 337 340
225 224 229 234 234 235 236 237 238 242 246 250 251 251 247 244 242 244 251 258 261 260 254 242 234 231 232 233 233 233 233 234 234 233 233 232 231 232 232 233 236 239 240 245 253 258 262 270 281 293 305 312 309 300 295 296 298 299 302 304 307 312 315 317 321 321 318 319 320 320 325 330 332 338 349 348 340 340 345 346 340 330 325 330 337
222 226 231 235 237 237 236 237 239 242 246 247 243 237 232 235 243 250 255 257 258 257 251 239 232 231 232 232 232 232 233 233 234 234 233 233 233 233 234 235 238 240 241 246 252 255 260 269 280 294 306 313 311 301 293 292 294 295 299 302 305 309 313 315 317 318 318 317 316 317 322 328 329 330 337 348 348 339 340 342 340 327 317 321 334
225 231 235 239 242 240 238 239 240 242 246 242 229 221 223 236 248 252 253 255 255 254 248 238 233 232 233 233 232 232 233 233 234 234 234 234 235 235 236 237 240 241 243 248 252 255 262 270 280 293 301 306 306 299 290 288 290 293 295 298 302 307 311 313 315 316 317 314 313 316 320 323 326 326 330 340 348 350 343 337 332 323 313 317 330